Watsonville, CA

3:24 PM PDT on March 22, 2017 (GMT -0700)
Watsonville Municipal

Weather History for KWVI - April, 2014

Change the Weather History Date:

Tuesday, April 22, 2014

  Actual Average Record
Temperature  
Mean Temperature 57 °F 56 °F  
Max Temperature 69 °F 67 °F 79 °F (2004)
Min Temperature 45 °F 45 °F 39 °F (2008)
Degree Days  
Heating Degree Days 8    
Month to date heating degree days 169  
Since 1 July heating degree days 2151  
Cooling Degree Days 0    
Month to date cooling degree days 0  
Year to date cooling degree days 0  
Growing Degree Days 7 (Base 50)    
Moisture  
Dew Point 44 °F    
Average Humidity 59    
Maximum Humidity 89    
Minimum Humidity 29    
Precipitation  
Precipitation 0.06 in - 0.97 in (1955)
Month to date precipitation 0.79  
Year to date precipitation 7.83  
Since 1 July precipitation 8.90  
Sea Level Pressure  
Sea Level Pressure 30.06 in    
Wind  
Wind Speed 7 mph (WSW)    
Max Wind Speed 18 mph    
Max Gust Speed 128 mph    
Visibility 9 miles    
Events Rain    
T = Trace of Precipitation, MM = Missing Value Source: NWS Daily Summary

Daily Weather History Graph

Daily Weather History Graph

Search for Another Location

Airport or City:

Trip Planner

Search our weather history database for the weather conditions in past years. The results will help you decide how hot, cold, wet, or windy it might be!

Date:

Astronomy

Apr. 22, 2014 Rise Set
Actual Time 6:23 AM PDT 7:48 PM PDT
Civil Twilight 5:56 AM PDT 8:15 PM PDT
Nautical Twilight 5:23 AM PDT 8:48 PM PDT
Astronomical Twilight 4:49 AM PDT 9:22 PM PDT
Moon 2:06 AM PDT 1:05 PM PDT
Length of Visible Light 14h 19m
Length of Day
13h 24m
Last Quarter, 45% of the Moon is Illuminated
Apr 22
Last Quarter
Apr 28
New
May 6
First Quarter
May 14
Full
May 21
Last Quarter

Hourly Weather History & Observations

Time (PDT) Temp. Dew Point Humidity Pressure Visibility Wind Dir Wind Speed Gust Speed Precip Events Conditions
12:53 AM 53.1 °F 48.9 °F 86% 30.01 in 10.0 mi WSW 3.5 mph - N/A   Mostly Cloudy
1:32 AM 53.6 °F 50.0 °F 88% 30.01 in 10.0 mi SW 3.5 mph - N/A   Overcast
1:39 AM 53.6 °F 50.0 °F 88% 30.01 in 10.0 mi SW 3.5 mph - N/A   Overcast
1:49 AM 53.6 °F 50.0 °F 88% 30.01 in 10.0 mi Calm Calm - N/A   Overcast
1:53 AM 54.0 °F 50.0 °F 86% 30.01 in 8.0 mi Calm Calm - N/A   Overcast
2:00 AM 53.6 °F 50.0 °F 88% 30.01 in 6.0 mi WSW 3.5 mph - N/A   Overcast
2:12 AM 53.6 °F 51.8 °F 94% 30.00 in 4.0 mi SW 4.6 mph - N/A   Overcast
2:23 AM 53.6 °F 51.8 °F 94% 30.00 in 5.0 mi SW 3.5 mph - 0.00 in Rain Light Rain
3:07 AM 53.6 °F 51.8 °F 94% 30.00 in 2.5 mi WSW 5.8 mph - 0.02 in Rain Light Rain
3:16 AM 53.6 °F 51.8 °F 94% 30.00 in 5.0 mi WSW 5.8 mph - 0.02 in Rain Light Rain
3:38 AM 53.6 °F 51.8 °F 94% 30.00 in 9.0 mi West 4.6 mph - 0.03 in   Overcast
3:53 AM 53.1 °F 51.1 °F 93% 30.00 in 10.0 mi WSW 5.8 mph - 0.03 in   Overcast
4:21 AM 51.8 °F 46.4 °F 82% 30.01 in 10.0 mi West 8.1 mph - N/A   Scattered Clouds
4:53 AM 51.1 °F 45.0 °F 80% 30.02 in 10.0 mi West 10.4 mph - N/A   Scattered Clouds
5:53 AM 48.0 °F 42.1 °F 80% 30.05 in 10.0 mi WSW 6.9 mph - N/A   Clear
6:53 AM 51.1 °F 42.1 °F 71% 30.08 in 10.0 mi West 3.5 mph - N/A   Scattered Clouds
7:53 AM 53.1 °F 43.0 °F 69% 30.10 in 10.0 mi WSW 5.8 mph - N/A   Clear
8:53 AM 55.9 °F 39.9 °F 55% 30.10 in 10.0 mi Variable 6.9 mph - N/A   Clear
9:53 AM 59.0 °F 36.0 °F 42% 30.11 in 10.0 mi WNW 8.1 mph 17.3 mph N/A   Clear
10:53 AM 61.0 °F 43.0 °F 52% 30.12 in - WSW 9.2 mph - N/A   Clear
11:53 AM 62.1 °F 44.1 °F 52% 30.11 in 10.0 mi SW 11.5 mph - 0.03 in   Clear
12:53 PM 62.1 °F 44.1 °F 52% 30.10 in 10.0 mi SSW 11.5 mph 19.6 mph N/A   Unknown
1:53 PM 64.0 °F 46.9 °F 54% 30.09 in 10.0 mi SSW 9.2 mph - N/A   Partly Cloudy
2:53 PM 64.9 °F 44.1 °F 47% 30.08 in 10.0 mi WSW 9.2 mph 18.4 mph N/A   Mostly Cloudy
3:53 PM 64.0 °F 42.1 °F 45% 30.07 in 10.0 mi SSW 9.2 mph - N/A   Mostly Cloudy
4:53 PM 66.0 °F 34.0 °F 30% 30.07 in 10.0 mi West 9.2 mph 19.6 mph N/A   Mostly Cloudy
5:53 PM 63.0 °F 33.1 °F 33% 30.08 in 10.0 mi West 10.4 mph 19.6 mph N/A   Clear
6:53 PM 60.1 °F 36.0 °F 41% 30.08 in 10.0 mi West 9.2 mph - N/A   Clear
7:53 PM 55.9 °F 36.0 °F 47% 30.09 in 10.0 mi West 8.1 mph - N/A   Clear
8:53 PM 54.0 °F 37.0 °F 53% 30.12 in 10.0 mi Variable 3.5 mph - N/A   Clear
9:37 PM 51.8 °F 37.4 °F 58% 30.13 in 10.0 mi West 4.6 mph 127.7 mph N/A   Squalls
9:53 PM 51.1 °F 37.0 °F 59% 30.13 in 10.0 mi Variable 3.5 mph - N/A   Clear
10:53 PM 50.0 °F 36.0 °F 59% 30.13 in 10.0 mi Calm Calm - N/A   Clear
11:53 PM 46.9 °F 37.0 °F 68% 30.14 in 10.0 mi NW 3.5 mph - N/A   Clear